Weather History for PHMK - November, 2013

Change the Weather History Date:

Friday, November 1, 2013

  Actual Average Record
Temperature  
Mean Temperature 77 °F -  
Max Temperature 81 °F 83 °F 87 °F (1980)
Min Temperature 73 °F 69 °F 61 °F (2012)
Cooling Degree Days 12    
Growing Degree Days 27 (Base 50)    
Moisture  
Dew Point 70 °F    
Average Humidity 82    
Maximum Humidity 94    
Minimum Humidity 69    
Precipitation  
Precipitation 0.02 in - - ()
Sea Level Pressure  
Sea Level Pressure 30.07 in    
Wind  
Wind Speed 10 mph (NE)    
Max Wind Speed 17 mph    
Max Gust Speed 28 mph    
Visibility 10 miles    
Events Rain    
Averages and records for this station are not official NWS values.
T = Trace of Precipitation, MM = Missing Value Source: NWS Daily Summary

Daily Weather History Graph

Daily Weather History Graph

Search for Another Location

Airport or City:

Trip Planner

Search our weather history database for the weather conditions in past years. The results will help you decide how hot, cold, wet, or windy it might be!

Date:

Astronomy

Nov. 01, 2013 Rise Set
Actual Time 6:31 AM HST 5:52 PM HST
Civil Twilight 6:08 AM HST 6:15 PM HST
Nautical Twilight 5:42 AM HST 6:41 PM HST
Astronomical Twilight 5:16 AM HST 7:07 PM HST
Moon 4:47 AM HST (11/1) 4:43 PM HST (11/1)
Length of Visible Light 12h 06m
Length of Day
11h 20m
Waning Crescent, 3% of the Moon is Illuminated
Nov 1
Waning Crescent
Nov 3
New
Nov 9
First Quarter
Nov 17
Full
Nov 25
Last Quarter

Hourly Weather History & Observations

Time (HST) Temp. Heat Index Dew Point Humidity Pressure Visibility Wind Dir Wind Speed Gust Speed Precip Events Conditions
12:54 AM 73.9 °F - 69.1 °F 85% 30.09 in 10.0 mi Calm Calm - N/A   Scattered Clouds
1:49 AM 73.4 °F - 69.8 °F 88% 30.07 in 10.0 mi NE 9.2 mph - N/A   Mostly Cloudy
1:54 AM 73.9 °F - 69.1 °F 85% 30.07 in 10.0 mi NNE 6.9 mph - N/A   Scattered Clouds
2:54 AM 73.9 °F - 69.1 °F 85% 30.06 in 10.0 mi NE 6.9 mph 18.4 mph N/A   Clear
3:54 AM 73.0 °F - 69.1 °F 87% 30.05 in 10.0 mi NE 9.2 mph 16.1 mph N/A   Clear
4:54 AM 73.0 °F - 69.1 °F 87% 30.06 in 10.0 mi NE 9.2 mph 18.4 mph N/A   Scattered Clouds
5:54 AM 73.0 °F - 68.0 °F 84% 30.07 in 10.0 mi NNE 13.8 mph 21.9 mph 0.00 in   Clear
6:54 AM 73.9 °F - 68.0 °F 82% 30.09 in 10.0 mi NNE 10.4 mph 17.3 mph 0.00 in Rain Light Rain
7:54 AM 77.0 °F - 68.0 °F 74% 30.10 in 10.0 mi NE 9.2 mph 16.1 mph 0.00 in   Partly Cloudy
8:54 AM 75.0 °F - 71.1 °F 87% 30.12 in 9.0 mi NE 5.8 mph 16.1 mph 0.00 in Rain Light Rain
9:54 AM 79.0 °F - 69.1 °F 72% 30.11 in 10.0 mi NE 16.1 mph 24.2 mph 0.00 in   Clear
10:54 AM 80.1 °F 82.9 °F 69.1 °F 69% 30.09 in 10.0 mi NE 15.0 mph 23.0 mph N/A   Scattered Clouds
11:54 AM 80.1 °F 83.2 °F 70.0 °F 71% 30.06 in 10.0 mi North 13.8 mph 21.9 mph 0.00 in   Mostly Cloudy
12:27 PM 78.8 °F - 73.4 °F 83% 30.04 in 9.0 mi NNE 16.1 mph 25.3 mph 0.01 in Rain Light Rain
12:36 PM 78.8 °F - 71.6 °F 78% 30.04 in 10.0 mi NNE 11.5 mph 21.9 mph 0.01 in   Scattered Clouds
12:54 PM 79.0 °F - 70.0 °F 74% 30.04 in 10.0 mi NNE 17.3 mph 25.3 mph 0.01 in   Scattered Clouds
1:54 PM 81.0 °F 84.4 °F 70.0 °F 69% 30.01 in 10.0 mi NE 13.8 mph 20.7 mph 0.00 in   Partly Cloudy
2:54 PM 78.1 °F - 72.0 °F 81% 30.01 in 8.0 mi NE 15.0 mph 25.3 mph 0.00 in Rain Light Rain
3:54 PM 78.1 °F - 70.0 °F 76% 30.00 in 10.0 mi NE 15.0 mph 26.5 mph 0.00 in   Scattered Clouds
4:54 PM 77.0 °F - 70.0 °F 79% 30.02 in 10.0 mi NE 15.0 mph 27.6 mph N/A   Scattered Clouds
5:54 PM 75.9 °F - 69.1 °F 79% 30.03 in 10.0 mi East 9.2 mph 18.4 mph N/A   Scattered Clouds
6:54 PM 73.9 °F - 70.0 °F 87% 30.06 in 10.0 mi NE 12.7 mph 21.9 mph N/A   Partly Cloudy
7:54 PM 75.0 °F - 71.1 °F 87% 30.08 in 10.0 mi NE 13.8 mph 19.6 mph N/A   Scattered Clouds
8:21 PM 73.4 °F - 71.6 °F 94% 30.08 in 9.0 mi ENE 12.7 mph 23.0 mph 0.00 in Rain Light Rain
8:36 PM 73.4 °F - 71.6 °F 94% 30.09 in 10.0 mi NE 12.7 mph 26.5 mph 0.01 in Rain Light Rain
8:54 PM 73.9 °F - 71.1 °F 91% 30.10 in 10.0 mi NE 15.0 mph 20.7 mph 0.01 in   Mostly Cloudy
9:54 PM 73.9 °F - 71.1 °F 91% 30.10 in 10.0 mi NE 17.3 mph 24.2 mph 0.00 in   Partly Cloudy
10:54 PM 73.9 °F - 70.0 °F 87% 30.10 in 10.0 mi NE 15.0 mph 26.5 mph N/A   Clear
11:54 PM 73.9 °F - 69.1 °F 85% 30.09 in 10.0 mi NE 8.1 mph 18.4 mph N/A   Clear